Flag for Australia Weather past 2 weeks in Adelaide, South Australia, Australia

Now
45 °F

Clear.


Feels Like: 41 °F
Forecast: 42 / 54 °F
Wind: 6 mph from East

Location: Adelaide Airport

Current Time: Aug 1, 2014 at 8:29:51 PM

Latest Report: Aug 1, 2014 at 7:30 PM


Visibility: 10 mi

Pressure: 30.30 "Hg

Humidity: 76%

Dew point: 37 °F

Location of AdelaideLocation

Historic Weather in Adelaide — Graph

°F

Adelaide temperature yesterday

Maximum temperature yesterday: 59 °F (at 9:00 AM)
Minimum temperature yesterday: 46 °F (at 7:30 PM)
Average temperature yesterday: 52 °F

Past Weeks' High & Low Weather Summary

 TemperatureHumidityPressure
High64 °F (Jul 22, 1:00 PM)100% (Jul 24, 4:00 AM)30.51 "Hg (Jul 24, 4:00 AM)
Low37 °F (Jul 18, 4:30 AM)37% (Jul 22, 12:00 PM)29.65 "Hg (Jul 24, 4:00 AM)
Average52 °F78%30.11 "Hg
* Reported Jul 17 7:30 PM — Aug 1 7:30 PM, Adelaide, Weather by CustomWeather, © 2014

Note: Actual official high and low records may vary slightly from our data, if they occured in-between our weather recording intervals... More about our weather records

Advertising

Adelaide weather history for previous 24 hours

 ConditionsComfort  
Time TempWeatherWind HumidityBarometerVisibility
7:30 PM
Aug 1
45 °FClear.6 mph76%30.30 "Hg10 mi
7:00 PM48 °FPassing clouds.5 mph58%30.30 "HgN/A
6:30 PM46 °FPassing clouds.3 mph66%30.27 "HgN/A
6:00 PM48 °FPassing clouds.6 mph62%30.27 "HgN/A
5:30 PM48 °FPassing clouds.7 mph66%30.24 "HgN/A
5:00 PM52 °FPassing clouds.13 mph50%30.24 "HgN/A
4:30 PM52 °FPassing clouds.18 mph50%30.21 "HgN/A
4:00 PM54 °FScattered clouds.20 mph47%30.21 "HgN/A
3:30 PM54 °FPassing clouds.18 mph58%30.18 "HgN/A
3:00 PM54 °FPassing clouds.20 mph51%30.18 "HgN/A
2:30 PM54 °FPassing clouds.23 mph47%30.15 "HgN/A
2:00 PM54 °FScattered clouds.20 mph58%30.15 "HgN/A
1:30 PM52 °FPassing clouds.18 mph72%30.15 "HgN/A
1:00 PM52 °FPassing clouds.21 mph67%30.12 "HgN/A
12:32 PM48 °FSprinkles. Scattered clouds.31 mph82%30.12 "HgN/A
12:00 PM52 °FPassing clouds.22 mph67%30.12 "HgN/A
11:30 AM46 °FSprinkles. Scattered clouds.33 mph82%30.12 "HgN/A
11:00 AM50 °FScattered showers. Passing clouds.20 mph76%30.09 "HgN/A
10:30 AM52 °FScattered clouds.24 mph58%30.09 "HgN/A
10:00 AM52 °FScattered clouds.28 mph62%30.07 "HgN/A
9:00 AM50 °FScattered clouds.16 mph67%30.04 "HgN/A
8:30 AM50 °FScattered showers. Scattered clouds.31 mph62%30.01 "HgN/A
8:25 AM52 °FPartly sunny.30 mph54%30.01 "HgN/A
8:00 AM50 °FPassing clouds.29 mph62%29.98 "HgN/A
7:30 AM50 °FScattered clouds.32 mph58%29.95 "HgN/A
7:00 AM52 °FScattered clouds.29 mph50%29.95 "HgN/A
6:30 AM52 °FPassing clouds.33 mph50%29.92 "HgN/A
6:00 AM50 °FPassing clouds.33 mph62%29.89 "HgN/A
5:30 AM50 °FPassing clouds.30 mph62%29.89 "HgN/A
5:00 AM48 °FPartly cloudy.31 mph71%29.86 "HgN/A
4:30 AM50 °FPassing clouds.32 mph62%29.86 "HgN/A
4:00 AM50 °FPassing clouds.23 mph71%29.86 "HgN/A
3:30 AM48 °FSprinkles. Partly cloudy.26 mph66%29.86 "Hg5 mi
3:00 AM48 °FPartly cloudy.24 mph76%29.86 "HgN/A
2:30 AM48 °FPassing clouds.21 mph71%29.83 "HgN/A
2:00 AM48 °FSprinkles. Partly cloudy.26 mph71%29.86 "HgN/A
1:30 AM48 °FPassing clouds.21 mph71%29.86 "HgN/A
1:00 AM46 °FPassing clouds.17 mph76%29.86 "HgN/A
12:30 AM46 °FRain showers. Mostly cloudy.30 mph82%29.86 "Hg3 mi
12:20 AM48 °FRain showers. Mostly cloudy.26 mph71%29.86 "Hg2 mi
11:30 PM
Jul 31
52 °FPassing clouds.29 mph54%29.83 "HgN/A
11:00 PM52 °FPassing clouds.29 mph54%29.83 "HgN/A
10:30 PM50 °FPassing clouds.29 mph62%29.83 "HgN/A
10:00 PM50 °FPassing clouds.25 mph58%29.83 "HgN/A
9:30 PM50 °FPassing clouds.23 mph58%29.83 "HgN/A
9:00 PM50 °FPassing clouds.22 mph71%29.83 "HgN/A
8:30 PM46 °FScattered showers. Passing clouds.25 mph87%29.83 "HgN/A
8:00 PM48 °FPassing clouds.18 mph71%29.83 "HgN/A
Weather by CustomWeather, © 2014

See weather overviewHow to use our weather pages